| time (UTC) | temp C | wind direction | speed KPH | gust KPH | rain 1hr cm | rain 24hr cm | rain mn cm | humidity % | barometer mb |
| 20260902141731 | 26 | 172 | 12.9 | 19.3 | 0.00 | 0.00 | 0.00 | 69 | 1013.2 |
| 20260902141526 | 26 | 171 | 12.9 | 19.3 | 0.00 | 0.00 | 0.00 | 69 | 1010.3 |
| 20260902141241 | 26 | 145 | 16.1 | 19.3 | 0.00 | 0.00 | 0.00 | 69 | 1013.2 |
| 20260902140723 | 26 | 172 | 8.0 | 14.5 | 0.00 | 0.00 | 0.00 | 68 | 1013.5 |
| 20260902140235 | 27 | 167 | 8.0 | 17.7 | 0.00 | 0.00 | 0.00 | 67 | 1013.5 |
| 20260902140028 | 26 | 202 | 8.0 | 17.7 | 0.00 | 0.00 | 0.00 | 67 | 1010.7 |
| 20260902135808 | 27 | 165 | 11.3 | 19.3 | 0.00 | 0.00 | 0.00 | 66 | 1013.3 |
| 20260902135229 | 27 | 180 | 11.3 | 16.1 | 0.00 | 0.00 | 0.00 | 65 | 1013.4 |
| 20260902134800 | 27 | 176 | 11.3 | 14.5 | 0.00 | 0.00 | 0.00 | 64 | 1013.5 |
| 20260902134540 | 27 | 180 | 8.0 | 11.3 | 0.00 | 0.00 | 0.00 | 64 | 1010.7 |
| 20260902134224 | 27 | 151 | 9.7 | 12.9 | 0.00 | 0.00 | 0.00 | 64 | 1013.4 |
| 20260902133729 | 27 | 177 | 8.0 | 11.3 | 0.00 | 0.00 | 0.00 | 66 | 1013.5 |
| 20260902133302 | 27 | 146 | 4.8 | 8.0 | 0.00 | 0.00 | 0.00 | 69 | 1013.7 |
| 20260902133024 | 26 | 146 | 3.2 | 8.0 | 0.00 | 0.00 | 0.00 | 70 | 1010.9 |
| 20260902132723 | 26 | 146 | 4.8 | 6.4 | 0.00 | 0.00 | 0.00 | 70 | 1013.7 |
| 20260902132233 | 26 | 146 | 3.2 | 6.4 | 0.00 | 0.00 | 0.00 | 71 | 1013.8 |
| 20260902131745 | 25 | 146 | 3.2 | 6.4 | 0.00 | 0.00 | 0.00 | 71 | 1013.9 |
| 20260902131521 | 25 | 146 | 1.6 | 6.4 | 0.00 | 0.00 | 0.00 | 72 | 1011.1 |
| 20260902131228 | 25 | 146 | 3.2 | 6.4 | 0.00 | 0.00 | 0.00 | 72 | 1013.9 |
| 20260902130757 | 25 | 146 | 1.6 | 14.5 | 0.00 | 0.00 | 0.00 | 73 | 1013.9 |
| 20260902130303 | 24 | 146 | 4.8 | 14.5 | 0.00 | 0.00 | 0.00 | 74 | 1013.5 |
| 20260902130035 | 24 | 144 | 9.7 | 14.5 | 0.00 | 0.00 | 0.00 | 73 | 1010.6 |
| 20260902125724 | 24 | 136 | 4.8 | 8.0 | 0.00 | 0.00 | 0.00 | 73 | 1013.5 |
| 20260902125236 | 23 | 125 | 4.8 | 9.7 | 0.00 | 0.00 | 0.00 | 73 | 1013.7 |
| 20260902124749 | 23 | 98 | 4.8 | 9.7 | 0.00 | 0.00 | 0.00 | 74 | 1013.6 |
| 20260902124508 | 23 | 101 | 1.6 | 6.4 | 0.00 | 0.00 | 0.00 | 74 | 1010.9 |
| 20260902124233 | 23 | 101 | 3.2 | 6.4 | 0.00 | 0.00 | 0.00 | 74 | 1013.7 |
| 20260902123802 | 23 | 61 | 4.8 | 4.8 | 0.00 | 0.00 | 0.00 | 74 | 1013.7 |
| 20260902123222 | 23 | 60 | 3.2 | 8.0 | 0.00 | 0.00 | 0.00 | 74 | 1013.5 |
| 20260902123040 | 23 | 60 | 1.6 | 8.0 | 0.00 | 0.00 | 0.00 | 74 | 1010.7 |
| 20260902122733 | 23 | 61 | 4.8 | 8.0 | 0.00 | 0.00 | 0.00 | 74 | 1013.4 |
| 20260902122244 | 23 | 146 | 3.2 | 6.4 | 0.00 | 0.00 | 0.00 | 73 | 1013.4 |
| 20260902121736 | 23 | 146 | 3.2 | 6.4 | 0.00 | 0.00 | 0.00 | 73 | 1013.3 |
| 20260902121530 | 23 | 146 | 1.6 | 6.4 | 0.00 | 0.00 | 0.00 | 73 | 1010.5 |
| 20260902121246 | 23 | 146 | 3.2 | 6.4 | 0.00 | 0.00 | 0.00 | 72 | 1013.2 |
| 20260902120727 | 23 | 133 | 3.2 | 11.3 | 0.00 | 0.00 | 0.00 | 72 | 1013.2 |
| 20260902120239 | 23 | 128 | 4.8 | 12.9 | 0.00 | 0.00 | 0.00 | 72 | 1013.1 |
| 20260902120023 | 23 | 130 | 4.8 | 12.9 | 0.00 | 0.00 | 0.00 | 72 | 1010.3 |
| 20260902115807 | 23 | 103 | 6.4 | 12.9 | 0.00 | 0.00 | 0.00 | 72 | 1013.0 |
| 20260902115228 | 23 | 114 | 4.8 | 14.5 | 0.00 | 0.00 | 0.00 | 72 | 1013.0 |
| 20260902114801 | 23 | 62 | 4.8 | 14.5 | 0.00 | 0.00 | 0.00 | 72 | 1013.1 |
| 20260902114538 | 23 | 50 | 6.4 | 14.5 | 0.00 | 0.00 | 0.00 | 71 | 1010.4 |
| 20260902114312 | 23 | 46 | 6.4 | 14.5 | 0.00 | 0.00 | 0.00 | 71 | 1013.1 |
| 20260902113733 | 24 | 63 | 8.0 | 14.5 | 0.00 | 0.00 | 0.00 | 70 | 1013.1 |
| 20260902113307 | 24 | 46 | 4.8 | 6.4 | 0.00 | 0.00 | 0.00 | 69 | 1013.0 |
| 20260902113059 | 24 | 46 | 3.2 | 6.4 | 0.00 | 0.00 | 0.00 | 69 | 1010.3 |
| 20260902113008 | 24 | 45 | 3.2 | 6.4 | 0.00 | 0.00 | 0.00 | 69 | 1010.2 |
| 20260902112724 | 24 | 21 | 4.8 | 6.4 | 0.00 | 0.00 | 0.00 | 69 | 1013.0 |
| 20260902112235 | 24 | 11 | 3.2 | 6.4 | 0.00 | 0.00 | 0.00 | 67 | 1012.9 |
| 20260902111747 | 24 | 121 | 3.2 | 14.5 | 0.00 | 0.00 | 0.00 | 68 | 1012.8 |
| 20260902111600 | 24 | 155 | 3.2 | 14.5 | 0.00 | 0.00 | 0.00 | 68 | 1010.1 |
| 20260902111231 | 25 | 145 | 6.4 | 14.5 | 0.00 | 0.00 | 0.00 | 68 | 1012.8 |
| 20260902110740 | 25 | 161 | 8.0 | 16.1 | 0.00 | 0.00 | 0.00 | 67 | 1012.8 |
| 20260902110223 | 25 | 180 | 9.7 | 17.7 | 0.00 | 0.00 | 0.00 | 67 | 1012.8 |
| 20260902110107 | 24 | 186 | 11.3 | 17.7 | 0.00 | 0.00 | 0.00 | 67 | 1010.0 |
| 20260902110002 | 24 | 179 | 12.9 | 17.7 | 0.00 | 0.00 | 0.00 | 67 | 1010.0 |
| 20260902105753 | 25 | 165 | 11.3 | 17.7 | 0.00 | 0.00 | 0.00 | 67 | 1012.7 |
| 20260902105239 | 25 | 185 | 11.3 | 19.3 | 0.00 | 0.00 | 0.00 | 66 | 1012.7 |
| 20260902104722 | 25 | 171 | 14.5 | 20.9 | 0.00 | 0.00 | 0.00 | 66 | 1012.7 |
| 20260902104543 | 24 | 154 | 12.9 | 20.9 | 0.00 | 0.00 | 0.00 | 66 | 1009.9 |
| 20260902104234 | 25 | 154 | 12.9 | 20.9 | 0.00 | 0.00 | 0.00 | 66 | 1012.7 |
| 20260902103744 | 25 | 202 | 14.5 | 20.9 | 0.00 | 0.00 | 0.00 | 66 | 1012.9 |
| 20260902103227 | 25 | 183 | 11.3 | 17.7 | 0.00 | 0.00 | 0.00 | 66 | 1012.9 |
| 20260902103043 | 24 | 186 | 12.9 | 19.3 | 0.00 | 0.00 | 0.00 | 66 | 1010.2 |
| 20260902102737 | 25 | 177 | 9.7 | 14.5 | 0.00 | 0.00 | 0.00 | 66 | 1013.1 |
| 20260902102248 | 25 | 163 | 8.0 | 12.9 | 0.00 | 0.00 | 0.00 | 66 | 1013.2 |
| 20260902101731 | 25 | 173 | 8.0 | 11.3 | 0.00 | 0.00 | 0.00 | 66 | 1013.3 |
| 20260902101544 | 24 | 154 | 6.4 | 11.3 | 0.00 | 0.00 | 0.00 | 66 | 1010.6 |
| 20260902101240 | 25 | 173 | 6.4 | 11.3 | 0.00 | 0.00 | 0.00 | 65 | 1013.4 |
| 20260902100721 | 25 | 131 | 4.8 | 8.0 | 0.00 | 0.00 | 0.00 | 65 | 1013.5 |
| 20260902100234 | 25 | 111 | 4.8 | 9.7 | 0.00 | 0.00 | 0.00 | 64 | 1013.6 |
| 20260902100042 | 25 | 80 | 3.2 | 9.7 | 0.00 | 0.00 | 0.00 | 64 | 1010.8 |
| 20260902095807 | 25 | 112 | 4.8 | 9.7 | 0.00 | 0.00 | 0.00 | 64 | 1013.6 |
| 20260902095228 | 25 | 104 | 3.2 | 6.4 | 0.00 | 0.00 | 0.00 | 63 | 1013.6 |
| 20260902094742 | 25 | 219 | 3.2 | 6.4 | 0.00 | 0.00 | 0.00 | 63 | 1013.5 |
| 20260902094519 | 25 | 219 | 3.2 | 6.4 | 0.00 | 0.00 | 0.00 | 63 | 1010.8 |
| 20260902094225 | 25 | 219 | 3.2 | 4.8 | 0.00 | 0.00 | 0.00 | 63 | 1013.6 |
| 20260902093750 | 25 | 219 | 3.2 | 4.8 | 0.00 | 0.00 | 0.00 | 63 | 1013.6 |
| 20260902093241 | 26 | 219 | 0.0 | 11.3 | 0.00 | 0.00 | 0.00 | 62 | 1013.5 |
| 20260902093057 | 25 | 219 | 1.6 | 24.1 | 0.00 | 0.00 | 0.00 | 62 | 1010.7 |
| 20260902093005 | 25 | 219 | 1.6 | 24.1 | 0.00 | 0.00 | 0.00 | 62 | 1010.7 |
| 20260902092724 | 26 | 219 | 3.2 | 24.1 | 0.00 | 0.00 | 0.00 | 62 | 1013.5 |
| 20260902092257 | 25 | 219 | 14.5 | 24.1 | 0.00 | 0.00 | 0.00 | 62 | 1013.4 |
| 20260902091721 | 25 | 199 | 8.0 | 33.8 | 0.00 | 0.00 | 0.00 | 63 | 1013.4 |
| 20260902091550 | 25 | 221 | 6.4 | 33.8 | 0.00 | 0.00 | 0.00 | 63 | 1010.6 |
| 20260902091234 | 25 | 226 | 14.5 | 33.8 | 0.00 | 0.00 | 0.00 | 63 | 1013.5 |
| 20260902090744 | 25 | 220 | 9.7 | 33.8 | 0.00 | 0.00 | 0.00 | 66 | 1013.4 |
| 20260902090227 | 25 | 139 | 9.7 | 30.6 | 0.00 | 0.00 | 0.00 | 66 | 1013.4 |
| 20260902090044 | 24 | 160 | 14.5 | 30.6 | 0.00 | 0.00 | 0.00 | 66 | 1010.8 |
| 20260902085733 | 24 | 326 | 8.0 | 20.9 | 0.00 | 0.00 | 0.00 | 69 | 1013.3 |
| 20260902085244 | 23 | 209 | 4.8 | 8.0 | 0.00 | 0.00 | 0.00 | 69 | 1013.6 |
| 20260902084736 | 23 | 209 | 3.2 | 8.0 | 0.00 | 0.00 | 0.00 | 69 | 1013.5 |
| 20260902084524 | 23 | 209 | 1.6 | 8.0 | 0.00 | 0.00 | 0.00 | 69 | 1010.7 |
| 20260902084248 | 23 | 209 | 4.8 | 12.9 | 0.00 | 0.00 | 0.00 | 70 | 1013.5 |
| 20260902083729 | 24 | 349 | 4.8 | 17.7 | 0.00 | 0.00 | 0.00 | 70 | 1013.5 |
| 20260902083242 | 24 | 337 | 14.5 | 17.7 | 0.00 | 0.00 | 0.00 | 70 | 1013.7 |
| 20260902083058 | 23 | 355 | 12.9 | 16.1 | 0.00 | 0.00 | 0.00 | 70 | 1010.7 |
| 20260902083007 | 23 | 5 | 12.9 | 16.1 | 0.00 | 0.00 | 0.00 | 70 | 1010.8 |
| 20260902082724 | 24 | 339 | 11.3 | 16.1 | 0.00 | 0.00 | 0.00 | 69 | 1013.6 |
| 20260902082230 | 24 | 201 | 3.2 | 12.9 | 0.00 | 0.00 | 0.00 | 68 | 1013.4 |
| 20260902081740 | 24 | 192 | 6.4 | 12.9 | 0.00 | 0.00 | 0.00 | 68 | 1013.0 |
| 20260902081556 | 24 | 200 | 8.0 | 12.9 | 0.00 | 0.00 | 0.00 | 68 | 1010.1 |
| 20260902081224 | 24 | 169 | 8.0 | 14.5 | 0.00 | 0.00 | 0.00 | 68 | 1012.9 |
| 20260902080736 | 25 | 167 | 9.7 | 12.9 | 0.00 | 0.00 | 0.00 | 68 | 1012.9 |
| 20260902080247 | 25 | 182 | 11.3 | 14.5 | 0.00 | 0.00 | 0.00 | 68 | 1012.8 |
| 20260902080109 | 24 | 174 | 9.7 | 16.1 | 0.00 | 0.00 | 0.00 | 68 | 1010.0 |
| 20260902075729 | 25 | 179 | 9.7 | 16.1 | 0.00 | 0.00 | 0.00 | 68 | 1012.8 |
| 20260902075239 | 25 | 174 | 12.9 | 16.1 | 0.00 | 0.00 | 0.00 | 68 | 1012.7 |
| 20260902074748 | 25 | 164 | 12.9 | 17.7 | 0.00 | 0.00 | 0.00 | 68 | 1012.7 |
| 20260902074545 | 24 | 180 | 11.3 | 17.7 | 0.00 | 0.00 | 0.00 | 68 | 1009.8 |
| 20260902074239 | 25 | 183 | 12.9 | 17.7 | 0.00 | 0.00 | 0.00 | 67 | 1012.7 |
| 20260902073749 | 25 | 158 | 11.3 | 17.7 | 0.00 | 0.00 | 0.00 | 67 | 1012.7 |
| 20260902073231 | 25 | 194 | 11.3 | 17.7 | 0.00 | 0.00 | 0.00 | 67 | 1012.7 |
| 20260902073048 | 25 | 194 | 9.7 | 17.7 | 0.00 | 0.00 | 0.00 | 67 | 1009.8 |
| 20260902072743 | 25 | 150 | 11.3 | 19.3 | 0.00 | 0.00 | 0.00 | 67 | 1012.6 |
| 20260902072236 | 25 | 215 | 12.9 | 19.3 | 0.00 | 0.00 | 0.00 | 67 | 1012.6 |
| 20260902071743 | 25 | 190 | 12.9 | 25.7 | 0.00 | 0.00 | 0.00 | 67 | 1012.6 |
| 20260902071516 | 25 | 167 | 9.7 | 25.7 | 0.00 | 0.00 | 0.00 | 67 | 1009.8 |
| 20260902071228 | 25 | 200 | 11.3 | 25.7 | 0.00 | 0.00 | 0.00 | 67 | 1012.6 |
| 20260902070733 | 25 | 181 | 14.5 | 20.9 | 0.00 | 0.00 | 0.00 | 67 | 1012.6 |
| 20260902070222 | 25 | 177 | 11.3 | 19.3 | 0.00 | 0.00 | 0.00 | 67 | 1012.7 |
| 20260902070057 | 25 | 178 | 11.3 | 19.3 | 0.00 | 0.00 | 0.00 | 67 | 1010.0 |
| 20260902065734 | 25 | 202 | 9.7 | 16.1 | 0.00 | 0.00 | 0.00 | 67 | 1012.7 |
| 20260902065244 | 25 | 198 | 11.3 | 16.1 | 0.00 | 0.00 | 0.00 | 67 | 1012.7 |
| 20260902064726 | 25 | 194 | 9.7 | 22.5 | 0.00 | 0.00 | 0.00 | 67 | 1012.8 |
| 20260902064608 | 25 | 207 | 9.7 | 22.5 | 0.00 | 0.00 | 0.00 | 67 | 1009.9 |
| 20260902064240 | 25 | 199 | 12.9 | 22.5 | 0.00 | 0.00 | 0.00 | 67 | 1012.7 |
| 20260902063749 | 25 | 181 | 14.5 | 22.5 | 0.00 | 0.00 | 0.00 | 66 | 1012.6 |
| 20260902063227 | 25 | 189 | 14.5 | 17.7 | 0.00 | 0.00 | 0.00 | 66 | 1012.6 |
| 20260902063051 | 25 | 184 | 12.9 | 19.3 | 0.00 | 0.00 | 0.00 | 66 | 1009.8 |
| 20260902062739 | 25 | 196 | 12.9 | 22.5 | 0.00 | 0.00 | 0.00 | 66 | 1012.6 |
| 20260902062222 | 25 | 205 | 14.5 | 22.5 | 0.00 | 0.00 | 0.00 | 66 | 1012.5 |
| 20260902061733 | 25 | 173 | 12.9 | 20.9 | 0.00 | 0.00 | 0.00 | 66 | 1012.5 |
| 20260902061502 | 25 | 203 | 11.3 | 20.9 | 0.00 | 0.00 | 0.00 | 66 | 1009.7 |
| 20260902061247 | 26 | 164 | 12.9 | 20.9 | 0.00 | 0.00 | 0.00 | 66 | 1012.5 |
| 20260902060730 | 26 | 169 | 12.9 | 22.5 | 0.00 | 0.00 | 0.00 | 66 | 1012.5 |
| 20260902060241 | 26 | 168 | 11.3 | 17.7 | 0.00 | 0.00 | 0.00 | 66 | 1012.3 |
| 20260902060110 | 25 | 159 | 9.7 | 16.1 | 0.00 | 0.00 | 0.00 | 66 | 1009.6 |
| 20260902060000 | 25 | 184 | 11.3 | 16.1 | 0.00 | 0.00 | 0.00 | 66 | 1009.6 |
| 20260902055754 | 26 | 159 | 12.9 | 19.3 | 0.00 | 0.00 | 0.00 | 66 | 1012.3 |
| 20260902055302 | 26 | 182 | 12.9 | 17.7 | 0.00 | 0.00 | 0.00 | 65 | 1012.3 |
| 20260902054722 | 26 | 175 | 12.9 | 17.7 | 0.00 | 0.00 | 0.00 | 66 | 1012.3 |
| 20260902054521 | 26 | 176 | 12.9 | 20.9 | 0.00 | 0.00 | 0.00 | 65 | 1009.6 |
| 20260902054235 | 26 | 184 | 12.9 | 20.9 | 0.00 | 0.00 | 0.00 | 65 | 1012.3 |
| 20260902053744 | 26 | 162 | 14.5 | 19.3 | 0.00 | 0.00 | 0.00 | 65 | 1012.4 |
| 20260902053224 | 26 | 182 | 12.9 | 19.3 | 0.00 | 0.00 | 0.00 | 65 | 1012.4 |
| 20260902053013 | 26 | 163 | 11.3 | 19.3 | 0.00 | 0.00 | 0.00 | 65 | 1009.6 |
| 20260902052754 | 26 | 191 | 12.9 | 16.1 | 0.00 | 0.00 | 0.00 | 65 | 1012.5 |
| 20260902052239 | 26 | 161 | 12.9 | 17.7 | 0.00 | 0.00 | 0.00 | 65 | 1012.5 |
| 20260902051722 | 26 | 150 | 11.3 | 16.1 | 0.00 | 0.00 | 0.00 | 65 | 1012.6 |
| 20260902051552 | 26 | 177 | 11.3 | 16.1 | 0.00 | 0.00 | 0.00 | 65 | 1009.8 |
| 20260902051234 | 26 | 183 | 11.3 | 16.1 | 0.00 | 0.00 | 0.00 | 65 | 1012.6 |
| 20260902050743 | 26 | 174 | 12.9 | 16.1 | 0.00 | 0.00 | 0.00 | 65 | 1012.6 |
| 20260902050226 | 26 | 164 | 11.3 | 17.7 | 0.00 | 0.00 | 0.00 | 65 | 1012.6 |
| 20260902050045 | 26 | 172 | 9.7 | 17.7 | 0.00 | 0.00 | 0.00 | 65 | 1009.8 |
| 20260902045738 | 26 | 166 | 11.3 | 17.7 | 0.00 | 0.00 | 0.00 | 65 | 1012.5 |
| 20260902045248 | 27 | 170 | 12.9 | 17.7 | 0.00 | 0.00 | 0.00 | 65 | 1012.5 |
| 20260902044738 | 27 | 182 | 11.3 | 17.7 | 0.00 | 0.00 | 0.00 | 65 | 1012.6 |
| 20260902044531 | 26 | 165 | 11.3 | 17.7 | 0.00 | 0.00 | 0.00 | 65 | 1009.8 |
| 20260902044246 | 27 | 183 | 12.9 | 17.7 | 0.00 | 0.00 | 0.00 | 65 | 1012.6 |
| 20260902043725 | 27 | 157 | 11.3 | 17.7 | 0.00 | 0.00 | 0.00 | 65 | 1012.7 |
| 20260902043240 | 27 | 184 | 12.9 | 19.3 | 0.00 | 0.00 | 0.00 | 65 | 1012.6 |
| 20260902043034 | 27 | 161 | 11.3 | 17.7 | 0.00 | 0.00 | 0.00 | 65 | 1009.8 |
| 20260902042722 | 27 | 146 | 11.3 | 17.7 | 0.00 | 0.00 | 0.00 | 65 | 1012.6 |
| 20260902042235 | 27 | 181 | 12.9 | 16.1 | 0.00 | 0.00 | 0.00 | 65 | 1012.6 |
| 20260902041746 | 27 | 163 | 11.3 | 16.1 | 0.00 | 0.00 | 0.00 | 65 | 1012.6 |
| 20260902041530 | 27 | 173 | 9.7 | 17.7 | 0.00 | 0.00 | 0.00 | 65 | 1009.7 |
| 20260902041230 | 27 | 185 | 9.7 | 17.7 | 0.00 | 0.00 | 0.00 | 65 | 1012.6 |
| 20260902040736 | 27 | 172 | 12.9 | 17.7 | 0.00 | 0.00 | 0.00 | 65 | 1012.7 |
| 20260902040248 | 27 | 172 | 11.3 | 14.5 | 0.00 | 0.00 | 0.00 | 65 | 1012.6 |
| 20260902040048 | 27 | 146 | 11.3 | 16.1 | 0.00 | 0.00 | 0.00 | 65 | 1009.9 |
| 20260902035738 | 27 | 173 | 9.7 | 17.7 | 0.00 | 0.00 | 0.00 | 65 | 1012.7 |
| 20260902035227 | 27 | 165 | 11.3 | 17.7 | 0.00 | 0.00 | 0.00 | 65 | 1012.7 |
| 20260902034739 | 27 | 167 | 11.3 | 14.5 | 0.00 | 0.00 | 0.00 | 65 | 1012.7 |
| 20260902034542 | 27 | 166 | 11.3 | 16.1 | 0.00 | 0.00 | 0.00 | 65 | 1009.8 |
| 20260902034223 | 27 | 173 | 9.7 | 14.5 | 0.00 | 0.00 | 0.00 | 65 | 1012.6 |
| 20260902033753 | 27 | 182 | 11.3 | 14.5 | 0.00 | 0.00 | 0.00 | 65 | 1012.6 |
| 20260902033240 | 28 | 163 | 11.3 | 17.7 | 0.00 | 0.00 | 0.00 | 65 | 1012.6 |
| 20260902033033 | 27 | 186 | 11.3 | 17.7 | 0.00 | 0.00 | 0.00 | 65 | 1009.8 |
| 20260902032722 | 28 | 172 | 11.3 | 17.7 | 0.00 | 0.00 | 0.00 | 65 | 1012.5 |
| 20260902032254 | 28 | 163 | 11.3 | 16.1 | 0.00 | 0.00 | 0.00 | 65 | 1012.5 |
| 20260902031742 | 28 | 161 | 12.9 | 16.1 | 0.00 | 0.00 | 0.00 | 65 | 1012.5 |
| 20260902031557 | 28 | 160 | 9.7 | 16.1 | 0.00 | 0.00 | 0.00 | 65 | 1009.6 |
| 20260902031226 | 28 | 171 | 11.3 | 16.1 | 0.00 | 0.00 | 0.00 | 65 | 1012.5 |
| 20260902030756 | 28 | 169 | 9.7 | 16.1 | 0.00 | 0.00 | 0.00 | 65 | 1012.5 |
| 20260902030242 | 28 | 155 | 11.3 | 17.7 | 0.00 | 0.00 | 0.00 | 65 | 1012.5 |
| 20260902030034 | 28 | 162 | 11.3 | 17.7 | 0.00 | 0.00 | 0.00 | 65 | 1009.6 |
| 20260902025725 | 28 | 160 | 11.3 | 17.7 | 0.00 | 0.00 | 0.00 | 65 | 1012.5 |
| 20260902025237 | 28 | 174 | 11.3 | 16.1 | 0.00 | 0.00 | 0.00 | 65 | 1012.3 |
| 20260902024722 | 28 | 140 | 12.9 | 16.1 | 0.00 | 0.00 | 0.00 | 65 | 1012.3 |
| 20260902024545 | 28 | 166 | 11.3 | 17.7 | 0.00 | 0.00 | 0.00 | 65 | 1009.4 |
| 20260902024233 | 28 | 172 | 11.3 | 17.7 | 0.00 | 0.00 | 0.00 | 65 | 1012.3 |
| 20260902023743 | 28 | 144 | 11.3 | 16.1 | 0.00 | 0.00 | 0.00 | 64 | 1012.2 |
| 20260902023225 | 28 | 175 | 11.3 | 16.1 | 0.00 | 0.00 | 0.00 | 64 | 1012.2 |
| 20260902023048 | 28 | 163 | 9.7 | 14.5 | 0.00 | 0.00 | 0.00 | 64 | 1009.2 |
| 20260902022736 | 28 | 169 | 9.7 | 16.1 | 0.00 | 0.00 | 0.00 | 64 | 1012.1 |
| 20260902022243 | 29 | 167 | 9.7 | 17.7 | 0.00 | 0.00 | 0.00 | 64 | 1012.0 |
| 20260902021725 | 29 | 176 | 11.3 | 17.7 | 0.00 | 0.00 | 0.00 | 63 | 1011.9 |
| 20260902021613 | 28 | 171 | 9.7 | 16.1 | 0.00 | 0.00 | 0.00 | 63 | 1008.9 |
| 20260902021237 | 29 | 163 | 11.3 | 16.1 | 0.00 | 0.00 | 0.00 | 63 | 1011.8 |
| 20260902020747 | 29 | 165 | 9.7 | 14.5 | 0.00 | 0.00 | 0.00 | 62 | 1011.8 |
| 20260902020230 | 30 | 164 | 9.7 | 14.5 | 0.00 | 0.00 | 0.00 | 62 | 1011.8 |
| 20260902020056 | 29 | 167 | 8.0 | 14.5 | 0.00 | 0.00 | 0.00 | 62 | 1008.8 |
| 20260902015741 | 30 | 146 | 9.7 | 12.9 | 0.00 | 0.00 | 0.00 | 61 | 1011.7 |
| 20260902015222 | 30 | 173 | 9.7 | 12.9 | 0.00 | 0.00 | 0.00 | 61 | 1011.6 |
| 20260902014733 | 30 | 152 | 8.0 | 14.5 | 0.00 | 0.00 | 0.00 | 60 | 1011.5 |
| 20260902014558 | 30 | 156 | 6.4 | 14.5 | 0.00 | 0.00 | 0.00 | 60 | 1008.6 |
| 20260902014242 | 30 | 171 | 9.7 | 14.5 | 0.00 | 0.00 | 0.00 | 60 | 1011.5 |
| 20260902013723 | 30 | 140 | 8.0 | 16.1 | 0.00 | 0.00 | 0.00 | 59 | 1011.3 |
| 20260902013236 | 31 | 180 | 11.3 | 17.7 | 0.00 | 0.00 | 0.00 | 59 | 1011.3 |
| 20260902013104 | 30 | 165 | 11.3 | 16.1 | 0.00 | 0.00 | 0.00 | 59 | 1008.3 |
| 20260902012746 | 31 | 173 | 9.7 | 16.1 | 0.00 | 0.00 | 0.00 | 59 | 1011.3 |
| 20260902012229 | 31 | 165 | 9.7 | 16.1 | 0.00 | 0.00 | 0.00 | 58 | 1011.2 |
| 20260902011739 | 31 | 163 | 9.7 | 14.5 | 0.00 | 0.00 | 0.00 | 58 | 1011.3 |
| 20260902011600 | 31 | 161 | 8.0 | 14.5 | 0.00 | 0.00 | 0.00 | 58 | 1008.2 |
| 20260902011251 | 31 | 170 | 9.7 | 14.5 | 0.00 | 0.00 | 0.00 | 58 | 1011.2 |
| 20260902010743 | 32 | 161 | 9.7 | 12.9 | 0.00 | 0.00 | 0.00 | 57 | 1011.2 |
| 20260902010222 | 32 | 165 | 9.7 | 14.5 | 0.00 | 0.00 | 0.00 | 56 | 1011.2 |
| 20260902010036 | 32 | 163 | 8.0 | 14.5 | 0.00 | 0.00 | 0.00 | 56 | 1008.2 |
| 20260902005734 | 32 | 149 | 9.7 | 14.5 | 0.00 | 0.00 | 0.00 | 56 | 1011.2 |
| 20260902005244 | 32 | 178 | 11.3 | 14.5 | 0.00 | 0.00 | 0.00 | 55 | 1011.2 |
| 20260902004729 | 32 | 158 | 9.7 | 16.1 | 0.00 | 0.00 | 0.00 | 55 | 1011.2 |
| 20260902004538 | 32 | 180 | 9.7 | 14.5 | 0.00 | 0.00 | 0.00 | 54 | 1008.3 |
| 20260902004243 | 33 | 156 | 11.3 | 16.1 | 0.00 | 0.00 | 0.00 | 54 | 1011.3 |
| 20260902003725 | 33 | 162 | 11.3 | 16.1 | 0.00 | 0.00 | 0.00 | 53 | 1011.2 |
| 20260902003237 | 33 | 163 | 11.3 | 14.5 | 0.00 | 0.00 | 0.00 | 52 | 1011.3 |
| 20260902003044 | 33 | 180 | 9.7 | 14.5 | 0.00 | 0.00 | 0.00 | 52 | 1008.3 |
| 20260902002749 | 34 | 143 | 11.3 | 14.5 | 0.00 | 0.00 | 0.00 | 52 | 1011.2 |
| 20260902002235 | 34 | 156 | 9.7 | 14.5 | 0.00 | 0.00 | 0.00 | 51 | 1011.2 |
| 20260902001746 | 35 | 166 | 8.0 | 11.3 | 0.00 | 0.00 | 0.00 | 51 | 1011.2 |
| 20260902001504 | 35 | 167 | 8.0 | 14.5 | 0.00 | 0.00 | 0.00 | 51 | 1008.3 |
| 20260902001237 | 35 | 157 | 9.7 | 14.5 | 0.00 | 0.00 | 0.00 | 51 | 1011.3 |
| 20260902000747 | 35 | 174 | 9.7 | 17.7 | 0.00 | 0.00 | 0.00 | 50 | 1011.3 |
| 20260902000241 | 35 | 146 | 9.7 | 17.7 | 0.00 | 0.00 | 0.00 | 50 | 1011.5 |
| 20260902000044 | 35 | 178 | 11.3 | 17.7 | 0.00 | 0.00 | 0.00 | 50 | 1008.5 |
| 20260901235722 | 35 | 163 | 9.7 | 14.5 | 0.00 | 0.00 | 0.00 | 49 | 1011.5 |
| 20260901235236 | 36 | 163 | 11.3 | 16.1 | 0.00 | 0.00 | 0.00 | 49 | 1011.5 |
| 20260901234742 | 36 | 166 | 12.9 | 16.1 | 0.00 | 0.00 | 0.00 | 49 | 1011.6 |
| 20260901234554 | 36 | 191 | 9.7 | 19.3 | 0.00 | 0.00 | 0.00 | 49 | 1008.6 |
| 20260901234228 | 36 | 192 | 9.7 | 14.5 | 0.00 | 0.00 | 0.00 | 49 | 1011.6 |
| 20260901233738 | 36 | 182 | 9.7 | 12.9 | 0.00 | 0.00 | 0.00 | 49 | 1011.6 |
| 20260901233250 | 36 | 188 | 8.0 | 12.9 | 0.00 | 0.00 | 0.00 | 48 | 1011.7 |
| 20260901233053 | 36 | 178 | 6.4 | 12.9 | 0.00 | 0.00 | 0.00 | 49 | 1008.7 |
| 20260901232735 | 36 | 190 | 8.0 | 14.5 | 0.00 | 0.00 | 0.00 | 48 | 1011.6 |
| 20260901232248 | 36 | 198 | 9.7 | 17.7 | 0.00 | 0.00 | 0.00 | 47 | 1011.7 |
| 20260901231739 | 36 | 183 | 8.0 | 17.7 | 0.00 | 0.00 | 0.00 | 47 | 1011.7 |
| 20260901231530 | 36 | 165 | 9.7 | 17.7 | 0.00 | 0.00 | 0.00 | 48 | 1008.8 |
| 20260901231224 | 36 | 155 | 8.0 | 17.7 | 0.00 | 0.00 | 0.00 | 48 | 1011.7 |
| 20260901230749 | 36 | 186 | 11.3 | 16.1 | 0.00 | 0.00 | 0.00 | 47 | 1011.7 |
| 20260901230232 | 36 | 184 | 9.7 | 16.1 | 0.00 | 0.00 | 0.00 | 47 | 1011.7 |
| 20260901230032 | 36 | 188 | 11.3 | 19.3 | 0.00 | 0.00 | 0.00 | 47 | 1008.8 |
| 20260901225744 | 36 | 200 | 9.7 | 17.7 | 0.00 | 0.00 | 0.00 | 47 | 1011.8 |
| 20260901225228 | 36 | 199 | 9.7 | 16.1 | 0.00 | 0.00 | 0.00 | 48 | 1011.8 |
| 20260901224758 | 36 | 211 | 11.3 | 16.1 | 0.00 | 0.00 | 0.00 | 48 | 1011.9 |
| 20260901224528 | 36 | 186 | 9.7 | 16.1 | 0.00 | 0.00 | 0.00 | 48 | 1009.0 |
| 20260901224250 | 36 | 197 | 9.7 | 20.9 | 0.00 | 0.00 | 0.00 | 49 | 1011.9 |
| 20260901223732 | 36 | 201 | 11.3 | 20.9 | 0.00 | 0.00 | 0.00 | 47 | 1011.9 |
| 20260901223240 | 36 | 219 | 11.3 | 19.3 | 0.00 | 0.00 | 0.00 | 48 | 1011.8 |
| 20260901223011 | 36 | 179 | 9.7 | 19.3 | 0.00 | 0.00 | 0.00 | 47 | 1008.9 |
| 20260901222723 | 36 | 183 | 12.9 | 19.3 | 0.00 | 0.00 | 0.00 | 47 | 1011.8 |
| 20260901222235 | 36 | 180 | 12.9 | 24.1 | 0.00 | 0.00 | 0.00 | 47 | 1011.8 |
| 20260901221746 | 36 | 179 | 16.1 | 24.1 | 0.00 | 0.00 | 0.00 | 47 | 1011.8 |
| 20260901221513 | 36 | 211 | 12.9 | 27.4 | 0.00 | 0.00 | 0.00 | 47 | 1008.9 |
| 20260901221229 | 36 | 205 | 11.3 | 27.4 | 0.00 | 0.00 | 0.00 | 47 | 1011.9 |
| 20260901220740 | 36 | 166 | 12.9 | 22.5 | 0.00 | 0.00 | 0.00 | 47 | 1012.0 |
| 20260901220223 | 36 | 201 | 12.9 | 30.6 | 0.00 | 0.00 | 0.00 | 46 | 1012.0 |
| 20260901220009 | 36 | 191 | 14.5 | 30.6 | 0.00 | 0.00 | 0.00 | 45 | 1009.0 |
| 20260901215735 | 36 | 207 | 14.5 | 30.6 | 0.00 | 0.00 | 0.00 | 46 | 1012.1 |
| 20260901215306 | 36 | 200 | 14.5 | 30.6 | 0.00 | 0.00 | 0.00 | 45 | 1012.1 |
| 20260901214724 | 36 | 157 | 14.5 | 27.4 | 0.00 | 0.00 | 0.00 | 46 | 1012.1 |
| 20260901214554 | 36 | 178 | 14.5 | 27.4 | 0.00 | 0.00 | 0.00 | 46 | 1009.2 |
| 20260901214238 | 36 | 223 | 14.5 | 27.4 | 0.00 | 0.00 | 0.00 | 48 | 1012.1 |
| 20260901213749 | 36 | 188 | 16.1 | 27.4 | 0.00 | 0.00 | 0.00 | 47 | 1012.1 |
| 20260901213231 | 36 | 213 | 17.7 | 27.4 | 0.00 | 0.00 | 0.00 | 46 | 1012.2 |
| 20260901213055 | 36 | 196 | 16.1 | 27.4 | 0.00 | 0.00 | 0.00 | 48 | 1009.3 |
| 20260901212742 | 36 | 180 | 17.7 | 29.0 | 0.00 | 0.00 | 0.00 | 47 | 1012.1 |
| 20260901212224 | 36 | 191 | 20.9 | 32.2 | 0.00 | 0.00 | 0.00 | 46 | 1012.2 |
| 20260901211731 | 36 | 183 | 20.9 | 32.2 | 0.00 | 0.00 | 0.00 | 47 | 1012.2 |
| 20260901211555 | 36 | 211 | 12.9 | 24.1 | 0.00 | 0.00 | 0.00 | 47 | 1009.3 |
| 20260901211303 | 36 | 190 | 16.1 | 27.4 | 0.00 | 0.00 | 0.00 | 47 | 1012.3 |
| 20260901210723 | 37 | 221 | 17.7 | 27.4 | 0.00 | 0.00 | 0.00 | 47 | 1012.4 |
| 20260901210234 | 37 | 217 | 11.3 | 19.3 | 0.00 | 0.00 | 0.00 | 49 | 1012.4 |
| 20260901210033 | 36 | 180 | 12.9 | 19.3 | 0.00 | 0.00 | 0.00 | 49 | 1009.6 |
| 20260901205745 | 37 | 148 | 12.9 | 22.5 | 0.00 | 0.00 | 0.00 | 49 | 1012.4 |
| 20260901205235 | 37 | 176 | 12.9 | 27.4 | 0.00 | 0.00 | 0.00 | 49 | 1012.4 |
| 20260901204804 | 37 | 196 | 16.1 | 27.4 | 0.00 | 0.00 | 0.00 | 48 | 1012.4 |
| 20260901204541 | 37 | 211 | 16.1 | 24.1 | 0.00 | 0.00 | 0.00 | 46 | 1009.6 |
| 20260901204227 | 37 | 196 | 16.1 | 25.7 | 0.00 | 0.00 | 0.00 | 48 | 1012.6 |
| 20260901203737 | 37 | 169 | 14.5 | 25.7 | 0.00 | 0.00 | 0.00 | 47 | 1012.6 |
| 20260901203221 | 37 | 181 | 12.9 | 20.9 | 0.00 | 0.00 | 0.00 | 49 | 1012.7 |
| 20260901203040 | 36 | 178 | 11.3 | 20.9 | 0.00 | 0.00 | 0.00 | 50 | 1009.9 |
| 20260901202732 | 37 | 170 | 12.9 | 25.7 | 0.00 | 0.00 | 0.00 | 49 | 1012.9 |
| 20260901202246 | 37 | 165 | 14.5 | 25.7 | 0.00 | 0.00 | 0.00 | 48 | 1012.9 |
| 20260901201729 | 37 | 189 | 12.9 | 19.3 | 0.00 | 0.00 | 0.00 | 49 | 1012.9 |
| 20260901201533 | 36 | 188 | 11.3 | 29.0 | 0.00 | 0.00 | 0.00 | 48 | 1010.1 |
| 20260901201303 | 37 | 200 | 14.5 | 29.0 | 0.00 | 0.00 | 0.00 | 48 | 1013.0 |
| 20260901200749 | 37 | 197 | 17.7 | 29.0 | 0.00 | 0.00 | 0.00 | 48 | 1012.9 |
| 20260901200240 | 37 | 201 | 11.3 | 22.5 | 0.00 | 0.00 | 0.00 | 48 | 1013.1 |
| 20260901200106 | 37 | 198 | 14.5 | 25.7 | 0.00 | 0.00 | 0.00 | 47 | 1010.3 |
| 20260901195723 | 37 | 174 | 16.1 | 25.7 | 0.00 | 0.00 | 0.00 | 47 | 1013.1 |
| 20260901195253 | 37 | 176 | 17.7 | 25.7 | 0.00 | 0.00 | 0.00 | 48 | 1013.2 |
| 20260901194743 | 37 | 213 | 14.5 | 24.1 | 0.00 | 0.00 | 0.00 | 46 | 1013.2 |
| 20260901194528 | 37 | 182 | 16.1 | 24.1 | 0.00 | 0.00 | 0.00 | 47 | 1010.4 |
| 20260901194228 | 37 | 170 | 12.9 | 22.5 | 0.00 | 0.00 | 0.00 | 47 | 1013.2 |
| 20260901193737 | 37 | 171 | 9.7 | 19.3 | 0.00 | 0.00 | 0.00 | 48 | 1013.3 |
| 20260901193246 | 37 | 174 | 16.1 | 24.1 | 0.00 | 0.00 | 0.00 | 47 | 1013.3 |
| 20260901193029 | 37 | 171 | 12.9 | 24.1 | 0.00 | 0.00 | 0.00 | 48 | 1010.5 |
| 20260901192729 | 37 | 144 | 14.5 | 24.1 | 0.00 | 0.00 | 0.00 | 47 | 1013.3 |
| 20260901192241 | 37 | 155 | 11.3 | 20.9 | 0.00 | 0.00 | 0.00 | 49 | 1013.5 |
| 20260901191726 | 37 | 169 | 14.5 | 20.9 | 0.00 | 0.00 | 0.00 | 48 | 1013.5 |
| 20260901191539 | 36 | 178 | 9.7 | 20.9 | 0.00 | 0.00 | 0.00 | 48 | 1010.8 |
| 20260901191239 | 36 | 192 | 11.3 | 20.9 | 0.00 | 0.00 | 0.00 | 47 | 1013.7 |
| 20260901190751 | 36 | 148 | 9.7 | 24.1 | 0.00 | 0.00 | 0.00 | 48 | 1013.6 |
| 20260901190221 | 36 | 175 | 12.9 | 24.1 | 0.00 | 0.00 | 0.00 | 48 | 1013.6 |
| 20260901190059 | 36 | 166 | 11.3 | 24.1 | 0.00 | 0.00 | 0.00 | 48 | 1010.8 |
| 20260901185728 | 36 | 178 | 14.5 | 24.1 | 0.00 | 0.00 | 0.00 | 46 | 1013.5 |
| 20260901185240 | 36 | 188 | 17.7 | 22.5 | 0.00 | 0.00 | 0.00 | 46 | 1013.4 |
| 20260901184724 | 36 | 132 | 16.1 | 22.5 | 0.00 | 0.00 | 0.00 | 46 | 1013.4 |
| 20260901184503 | 36 | 151 | 14.5 | 22.5 | 0.00 | 0.00 | 0.00 | 48 | 1010.8 |
| 20260901184236 | 36 | 169 | 12.9 | 25.7 | 0.00 | 0.00 | 0.00 | 48 | 1013.6 |
| 20260901183748 | 36 | 202 | 14.5 | 24.1 | 0.00 | 0.00 | 0.00 | 48 | 1013.6 |
| 20260901183231 | 36 | 174 | 16.1 | 22.5 | 0.00 | 0.00 | 0.00 | 47 | 1013.7 |
| 20260901183005 | 36 | 186 | 12.9 | 22.5 | 0.00 | 0.00 | 0.00 | 46 | 1010.9 |
| 20260901182743 | 36 | 183 | 14.5 | 24.1 | 0.00 | 0.00 | 0.00 | 47 | 1013.7 |
| 20260901182228 | 36 | 161 | 9.7 | 24.1 | 0.00 | 0.00 | 0.00 | 47 | 1013.8 |
| 20260901181736 | 36 | 160 | 9.7 | 17.7 | 0.00 | 0.00 | 0.00 | 47 | 1013.9 |
| 20260901181502 | 36 | 202 | 11.3 | 17.7 | 0.00 | 0.00 | 0.00 | 46 | 1011.1 |
| 20260901181249 | 36 | 163 | 12.9 | 17.7 | 0.00 | 0.00 | 0.00 | 48 | 1014.0 |
| 20260901180740 | 36 | 194 | 8.0 | 17.7 | 0.00 | 0.00 | 0.00 | 47 | 1014.0 |
| 20260901180223 | 36 | 161 | 8.0 | 19.3 | 0.00 | 0.00 | 0.00 | 47 | 1014.1 |
| 20260901180041 | 36 | 204 | 11.3 | 19.3 | 0.00 | 0.00 | 0.00 | 48 | 1011.3 |
| 20260901175734 | 36 | 198 | 9.7 | 19.3 | 0.00 | 0.00 | 0.00 | 48 | 1014.2 |
| 20260901175306 | 36 | 163 | 8.0 | 14.5 | 0.00 | 0.00 | 0.00 | 50 | 1014.2 |
| 20260901174727 | 35 | 156 | 12.9 | 16.1 | 0.00 | 0.00 | 0.00 | 47 | 1014.2 |
| 20260901174535 | 35 | 207 | 9.7 | 14.5 | 0.00 | 0.00 | 0.00 | 50 | 1011.4 |
| 20260901174237 | 35 | 159 | 8.0 | 17.7 | 0.00 | 0.00 | 0.00 | 49 | 1014.2 |
| 20260901173806 | 35 | 161 | 9.7 | 16.1 | 0.00 | 0.00 | 0.00 | 51 | 1014.2 |
| 20260901173229 | 35 | 207 | 6.4 | 14.5 | 0.00 | 0.00 | 0.00 | 52 | 1014.3 |
| 20260901173101 | 35 | 200 | 6.4 | 16.1 | 0.00 | 0.00 | 0.00 | 52 | 1011.5 |
| 20260901172739 | 35 | 227 | 6.4 | 12.9 | 0.00 | 0.00 | 0.00 | 52 | 1014.3 |
| 20260901172223 | 34 | 171 | 8.0 | 22.5 | 0.00 | 0.00 | 0.00 | 52 | 1014.4 |
| 20260901171735 | 34 | 185 | 11.3 | 22.5 | 0.00 | 0.00 | 0.00 | 50 | 1014.4 |
| 20260901171605 | 34 | 198 | 11.3 | 22.5 | 0.00 | 0.00 | 0.00 | 51 | 1011.7 |
| 20260901171248 | 34 | 190 | 8.0 | 17.7 | 0.00 | 0.00 | 0.00 | 52 | 1014.4 |
| 20260901170732 | 33 | 207 | 9.7 | 19.3 | 0.00 | 0.00 | 0.00 | 52 | 1014.4 |
| 20260901170236 | 33 | 209 | 9.7 | 19.3 | 0.00 | 0.00 | 0.00 | 52 | 1014.4 |
| 20260901170055 | 33 | 199 | 12.9 | 19.3 | 0.00 | 0.00 | 0.00 | 52 | 1011.7 |
| 20260901165749 | 33 | 163 | 6.4 | 19.3 | 0.00 | 0.00 | 0.00 | 52 | 1014.4 |
| 20260901165233 | 33 | 168 | 11.3 | 19.3 | 0.00 | 0.00 | 0.00 | 50 | 1014.5 |
| 20260901164736 | 33 | 192 | 9.7 | 16.1 | 0.00 | 0.00 | 0.00 | 53 | 1014.5 |
| 20260901164559 | 33 | 206 | 9.7 | 16.1 | 0.00 | 0.00 | 0.00 | 52 | 1011.8 |
| 20260901164248 | 33 | 196 | 8.0 | 16.1 | 0.00 | 0.00 | 0.00 | 52 | 1014.6 |
| 20260901163737 | 33 | 170 | 11.3 | 24.1 | 0.00 | 0.00 | 0.00 | 53 | 1014.6 |
| 20260901163221 | 33 | 144 | 14.5 | 24.1 | 0.00 | 0.00 | 0.00 | 54 | 1014.6 |
| 20260901163040 | 32 | 157 | 11.3 | 19.3 | 0.00 | 0.00 | 0.00 | 54 | 1012.0 |
| 20260901162729 | 33 | 150 | 12.9 | 19.3 | 0.00 | 0.00 | 0.00 | 53 | 1014.7 |
| 20260901162239 | 32 | 171 | 11.3 | 16.1 | 0.00 | 0.00 | 0.00 | 56 | 1014.7 |
| 20260901161722 | 32 | 198 | 6.4 | 12.9 | 0.00 | 0.00 | 0.00 | 54 | 1014.8 |
| 20260901161543 | 32 | 202 | 6.4 | 12.9 | 0.00 | 0.00 | 0.00 | 56 | 1012.1 |
| 20260901161234 | 32 | 200 | 8.0 | 12.9 | 0.00 | 0.00 | 0.00 | 57 | 1014.8 |
| 20260901160745 | 32 | 194 | 8.0 | 16.1 | 0.00 | 0.00 | 0.00 | 56 | 1014.8 |
| 20260901160237 | 32 | 182 | 9.7 | 16.1 | 0.00 | 0.00 | 0.00 | 60 | 1014.8 |
| 20260901160021 | 31 | 174 | 9.7 | 12.9 | 0.00 | 0.00 | 0.00 | 59 | 1012.1 |
| 20260901155749 | 31 | 144 | 6.4 | 11.3 | 0.00 | 0.00 | 0.00 | 60 | 1014.7 |
| 20260901155237 | 31 | 205 | 8.0 | 12.9 | 0.00 | 0.00 | 0.00 | 59 | 1014.5 |
| 20260901154724 | 31 | 213 | 8.0 | 12.9 | 0.00 | 0.00 | 0.00 | 58 | 1014.5 |
| 20260901154504 | 31 | 209 | 8.0 | 12.9 | 0.00 | 0.00 | 0.00 | 57 | 1011.8 |
| 20260901154238 | 31 | 175 | 8.0 | 12.9 | 0.00 | 0.00 | 0.00 | 58 | 1014.5 |
| 20260901153721 | 31 | 190 | 8.0 | 12.9 | 0.00 | 0.00 | 0.00 | 59 | 1014.7 |
| 20260901153231 | 31 | 160 | 8.0 | 12.9 | 0.00 | 0.00 | 0.00 | 58 | 1014.5 |
| 20260901153008 | 31 | 171 | 6.4 | 11.3 | 0.00 | 0.00 | 0.00 | 61 | 1011.9 |
| 20260901152742 | 31 | 172 | 6.4 | 9.7 | 0.00 | 0.00 | 0.00 | 61 | 1014.5 |
| 20260901152225 | 30 | 202 | 6.4 | 8.0 | 0.00 | 0.00 | 0.00 | 59 | 1014.4 |
| 20260901151738 | 30 | 202 | 4.8 | 8.0 | 0.00 | 0.00 | 0.00 | 61 | 1014.5 |
| 20260901151509 | 30 | 159 | 3.2 | 8.0 | 0.00 | 0.00 | 0.00 | 61 | 1011.8 |
| 20260901151248 | 30 | 224 | 4.8 | 8.0 | 0.00 | 0.00 | 0.00 | 60 | 1014.5 |
| 20260901150738 | 30 | 213 | 3.2 | 9.7 | 0.00 | 0.00 | 0.00 | 62 | 1014.5 |
| 20260901150222 | 30 | 213 | 6.4 | 11.3 | 0.00 | 0.00 | 0.00 | 61 | 1014.5 |
| 20260901150055 | 30 | 213 | 6.4 | 11.3 | 0.00 | 0.00 | 0.00 | 60 | 1011.8 |
| 20260901145736 | 30 | 135 | 8.0 | 12.9 | 0.00 | 0.00 | 0.00 | 60 | 1014.5 |
| 20260901145246 | 30 | 194 | 4.8 | 12.9 | 0.00 | 0.00 | 0.00 | 61 | 1014.5 |
| 20260901144730 | 30 | 194 | 4.8 | 11.3 | 0.00 | 0.00 | 0.00 | 62 | 1014.6 |
| 20260901144530 | 29 | 194 | 6.4 | 11.3 | 0.00 | 0.00 | 0.00 | 60 | 1012.0 |
| 20260901144243 | 29 | 170 | 8.0 | 11.3 | 0.00 | 0.00 | 0.00 | 63 | 1014.6 |
| 20260901143725 | 29 | 196 | 6.4 | 11.3 | 0.00 | 0.00 | 0.00 | 63 | 1014.5 |
| 20260901143234 | 28 | 199 | 6.4 | 14.5 | 0.00 | 0.00 | 0.00 | 63 | 1014.5 |
| 20260901143034 | 28 | 203 | 6.4 | 14.5 | 0.00 | 0.00 | 0.00 | 62 | 1012.0 |
| 20260901142749 | 28 | 181 | 8.0 | 14.5 | 0.00 | 0.00 | 0.00 | 65 | 1014.7 |
| 20260901142230 | 28 | 207 | 8.0 | 11.3 | 0.00 | 0.00 | 0.00 | 63 | 1014.8 |